Theta_e
300 302 302 303 304 305 307 308 311 313 315 319 323 325 326 326 326 327 326 327 327 327 329 331 331 330 331 331 331 330 329 329 328 328 327 326 326 326 325 325 324 324
297 299 300 301 302 303 305 306 307 309 310 313 314 318 322 325 325 326 326 326 326 326 326 328 329 330 331 330 330 330 329 329 328 328 328 327 326 326 325 325 324 325
295 297 297 298 300 301 302 303 305 305 306 307 309 311 313 316 322 326 326 326 326 327 327 326 327 327 328 329 330 329 329 329 328 328 327 327 327 326 326 326 325 324
294 295 295 296 298 300 301 301 301 302 304 304 305 307 309 313 316 319 323 321 324 325 326 327 327 326 326 327 327 328 329 329 329 329 327 327 327 327 326 326 325 325
293 294 294 294 296 298 300 299 299 300 301 303 304 305 306 307 309 314 317 322 325 325 325 326 327 327 327 327 327 326 327 328 328 328 327 326 327 326 326 326 325 324
292 293 293 293 294 296 296 296 298 299 300 301 302 303 304 305 306 308 312 315 320 324 325 325 325 326 327 327 325 326 326 326 327 327 327 326 326 326 326 326 325 324
291 292 292 293 293 294 294 294 295 297 299 300 301 301 302 302 302 303 306 310 313 317 322 324 325 325 326 326 326 324 325 325 326 326 326 326 326 325 326 325 324 324
291 291 291 292 292 293 293 293 294 295 297 297 297 299 300 300 300 302 304 306 308 312 316 321 324 325 325 325 323 323 324 325 325 326 325 325 325 324 324 325 325 324
290 290 290 290 291 292 292 292 293 294 295 294 295 296 298 298 299 301 302 303 305 307 310 314 320 323 324 324 323 323 323 324 324 324 324 324 324 324 324 324 324 323
289 289 289 289 289 290 290 291 292 293 293 293 294 294 294 295 297 300 301 301 303 304 305 308 311 315 321 324 324 324 323 323 323 323 324 324 324 324 324 324 323 323
288 288 288 288 289 289 289 290 291 291 292 292 293 292 293 293 295 297 299 300 301 301 302 304 306 309 312 316 322 323 323 323 323 323 323 323 324 324 316 323 323 322
287 288 288 288 288 288 289 290 290 290 290 291 291 291 291 293 294 295 296 297 299 300 301 302 304 306 308 311 315 320 323 323 323 323 323 323 323 323 323 323 323 323
286 287 287 288 288 288 289 289 289 289 289 290 290 290 290 291 292 293 294 295 296 298 300 301 303 304 306 308 311 315 319 321 322 322 323 323 323 322 322 323 323 323
285 285 286 287 288 288 288 288 289 288 289 289 288 288 289 290 290 291 292 293 294 296 298 299 300 302 304 306 309 313 315 318 320 320 321 322 322 322 322 322 323 323
285 285 286 286 287 287 288 288 288 288 288 288 287 287 289 289 289 290 290 290 292 293 295 296 298 300 303 304 305 305 307 309 313 319 320 320 321 321 322 322 322 322
284 284 285 285 286 286 287 286 287 287 287 287 287 287 287 287 288 289 289 289 290 291 292 294 296 299 296 295 296 299 301 303 305 308 314 318 318 319 320 321 321 322
283 283 284 284 285 285 285 286 286 286 286 286 286 286 286 287 287 287 288 288 289 290 290 292 294 295 294 296 296 297 298 301 303 305 307 311 316 317 317 316 319 320
283 283 283 283 284 284 285 285 285 285 285 285 285 286 286 286 286 286 287 288 288 288 289 290 291 292 294 295 296 297 296 299 301 302 304 307 310 314 316 316 317 318
282 282 282 282 283 284 284 284 284 284 284 284 284 285 286 286 286 286 286 287 287 287 287 289 290 291 293 294 295 296 296 296 299 301 302 303 306 309 312 315 315 315
282 282 282 282 283 283 284 284 283 283 283 284 284 285 285 285 285 286 286 286 286 286 287 288 289 290 292 293 293 294 295 296 298 300 301 302 303 305 308 311 314 315
281 281 281 282 282 282 283 282 283 283 283 283 283 283 284 284 284 285 285 286 286 286 286 287 288 289 291 291 292 294 295 295 297 298 300 301 302 303 305 308 310 313
281 281 281 282 282 282 282 281 282 282 282 282 282 282 283 284 284 284 284 285 285 286 286 286 287 289 290 290 291 292 293 293 295 296 297 298 300 301 303 305 307 309
281 281 281 281 282 281 281 281 281 281 281 282 281 282 282 282 282 283 284 284 284 285 285 285 286 288 289 289 290 291 291 292 293 294 295 296 297 299 301 303 304 306
281 281 281 281 281 280 280 280 280 281 280 281 281 281 281 281 281 282 282 283 283 284 285 285 285 287 288 289 289 290 291 291 293 293 293 294 295 297 299 301 302 296
281 281 280 280 280 280 280 279 279 280 280 281 281 280 280 281 281 280 281 282 283 283 284 284 285 286 287 288 289 290 290 291 292 292 292 293 294 295 297 299 301 298
280 280 280 280 279 279 279 279 279 280 280 280 280 280 279 279 280 280 280 281 282 282 283 284 284 285 286 288 289 290 290 290 291 291 291 292 293 294 294 297 299 301
Wind_Speed
12 12 12 11 10 10 11 12 11 11 10 12 10 9 7 7 9 8 6 8 8 7 7 9 10 11 10 10 10 10 10 10 10 9 10 10 11 12 12 12 12 11
11 11 11 11 10 11 11 11 12 11 11 12 11 13 11 10 8 8 8 5 8 11 10 10 8 9 10 9 9 10 9 10 11 8 10 12 11 10 12 13 13 11
12 12 13 13 12 13 13 12 10 10 10 10 12 12 12 12 13 8 6 6 7 8 7 6 10 9 7 8 9 10 10 10 11 9 10 11 10 10 10 11 10 12
13 12 11 10 10 10 10 10 12 11 10 11 12 11 11 12 13 13 10 10 9 10 10 7 8 9 9 10 10 10 10 10 10 10 10 9 10 10 11 9 10 10
12 11 11 11 10 9 8 9 11 11 11 11 11 12 13 13 13 12 13 12 9 9 9 9 8 8 8 9 9 9 10 10 9 9 9 10 9 9 9 9 10 11
12 11 12 11 11 10 9 10 10 10 11 11 11 10 10 12 12 13 14 13 12 11 9 7 6 9 10 9 8 10 10 10 9 10 10 11 10 9 8 9 11 12
13 13 14 12 13 12 10 10 10 9 9 9 10 10 10 11 12 13 14 14 14 12 11 9 8 7 7 7 8 8 9 10 11 10 11 11 10 12 11 10 11 12
13 12 12 12 13 12 12 12 11 11 10 10 10 10 9 11 11 11 11 13 13 14 13 12 10 9 8 7 8 10 12 10 10 12 12 12 11 12 11 10 11 13
12 11 12 13 13 12 13 13 13 12 11 11 11 10 10 9 10 11 12 12 13 13 13 13 13 11 8 9 10 11 12 11 10 12 12 13 13 13 13 11 12 12
11 11 12 12 13 12 13 13 12 12 12 12 12 11 12 12 10 10 11 12 12 13 13 14 14 13 12 10 12 11 12 12 11 12 12 13 13 13 13 12 13 13
11 10 11 12 12 11 13 13 12 12 11 12 13 13 13 12 11 9 9 10 11 12 13 13 13 14 14 14 12 11 12 12 12 12 13 13 13 13 13 13 14 14
10 10 11 11 11 11 12 11 11 11 12 11 11 14 14 12 12 11 10 11 11 11 11 12 12 12 14 15 14 13 13 12 12 12 13 13 13 13 12 12 13 13
10 10 11 10 10 11 10 10 10 10 11 12 11 12 13 13 13 13 12 11 12 11 11 11 12 12 12 14 15 15 15 14 13 13 13 13 13 13 13 13 13 13
9 9 9 10 10 10 10 10 10 10 10 11 11 12 12 12 13 14 13 12 12 11 11 10 11 11 11 12 12 13 13 14 13 13 13 13 13 13 13 13 14 14
10 8 8 9 10 10 10 10 10 10 10 10 10 11 10 11 12 12 13 14 13 11 12 11 10 10 9 10 12 14 14 15 16 14 14 14 14 13 13 14 14 14
9 9 10 10 10 10 10 10 10 10 11 11 11 11 11 11 11 11 11 12 14 13 11 10 10 8 10 16 15 13 13 13 14 15 14 13 13 14 14 14 15 14
8 8 9 10 10 10 9 10 11 10 11 11 11 11 12 12 11 12 12 11 12 13 14 11 10 10 16 17 18 18 14 12 13 14 15 15 13 12 14 13 13 14
8 9 9 10 9 10 11 10 10 11 11 11 12 13 12 11 12 12 12 12 11 12 13 13 12 13 17 18 17 18 16 13 12 12 13 13 14 14 11 11 12 12
9 9 9 9 9 9 10 11 11 11 11 12 12 12 12 12 13 12 13 13 12 13 14 13 13 15 17 19 18 18 19 16 11 12 12 13 14 14 14 13 11 11
9 10 10 9 9 8 9 11 11 12 12 11 11 11 12 13 13 14 13 13 13 13 14 13 14 16 19 19 19 19 19 16 12 13 12 13 13 14 14 14 13 11
9 10 11 10 9 9 10 10 10 12 12 11 10 11 12 12 13 14 13 13 13 13 13 15 13 18 20 21 19 19 19 16 12 13 12 13 13 13 14 14 14 14
9 10 10 10 10 10 10 10 11 11 12 12 11 11 10 10 11 11 14 15 14 14 14 15 16 19 19 20 20 20 22 14 13 13 13 13 14 14 14 13 13 14
9 10 10 11 11 10 11 11 12 12 11 10 12 12 12 12 12 12 12 13 16 15 15 16 15 18 20 21 21 22 18 12 12 11 12 13 14 13 13 13 13 14
9 10 11 11 10 10 11 11 11 11 11 10 11 12 13 13 13 13 12 12 14 16 15 16 17 18 21 22 22 21 18 14 11 11 13 13 14 13 12 12 14 19
9 10 10 10 10 10 10 12 13 12 11 10 10 11 13 12 13 13 14 13 12 14 18 18 16 18 19 20 23 21 17 12 11 10 13 13 12 13 12 12 13 14
9 11 11 10 9 10 11 12 12 12 12 12 11 10 12 12 12 13 15 15 13 13 13 14 16 16 16 20 21 22 21 15 11 11 12 14 12 12 13 12 12 12
Wind_Direction
4 4 4 4 5 359 351 346 344 343 342 336 327 314 303 305 300 283 247 239 268 271 253 225 211 211 215 215 213 215 218 223 225 220 219 219 224 222 224 223 218 217
6 8 5 1 360 2 359 355 350 349 346 342 338 336 333 316 300 299 286 256 230 251 260 267 252 229 219 214 214 217 220 222 226 219 222 219 225 223 225 224 224 222
2 5 7 8 359 354 354 352 353 350 349 343 341 342 335 333 325 304 285 279 270 263 245 229 264 268 259 237 222 220 221 223 225 222 219 222 221 222 225 224 226 224
359 359 358 359 357 350 350 350 351 352 349 352 349 338 335 333 331 326 311 287 272 262 263 244 237 242 244 244 236 237 230 227 227 222 220 221 222 221 221 219 221 223
352 353 353 352 348 345 347 353 352 352 350 347 344 346 344 342 334 328 324 316 293 266 261 251 244 250 240 245 248 243 240 236 229 226 226 225 223 218 221 216 217 222
351 350 349 349 347 343 347 352 350 346 345 348 347 339 342 340 337 332 326 320 317 304 285 270 248 249 252 243 248 248 244 239 231 224 227 228 227 217 218 217 218 222
347 347 347 346 345 346 347 347 346 343 341 340 335 342 343 342 339 335 328 321 317 312 305 289 272 262 257 254 251 257 253 243 240 232 227 229 227 225 217 217 220 225
343 343 342 343 343 344 345 345 343 343 340 341 341 334 339 337 333 329 326 324 319 317 315 310 296 279 269 255 245 244 251 246 246 237 232 229 227 230 226 220 220 225
338 340 342 341 342 341 343 343 341 339 342 342 338 334 333 333 328 326 328 326 324 323 322 318 313 296 276 262 253 247 249 247 244 242 236 232 228 228 227 224 225 227
337 336 340 340 340 339 338 340 338 338 339 338 335 335 334 330 326 324 327 328 327 327 327 323 317 313 302 275 262 253 247 247 242 243 240 237 233 230 227 221 222 226
333 335 336 336 336 334 334 335 336 335 337 336 334 333 332 328 325 326 326 326 327 325 323 320 317 312 306 300 285 263 253 248 244 239 239 240 237 235 231 225 223 223
330 332 332 331 329 330 330 330 331 332 333 332 333 330 327 326 325 326 327 323 320 318 314 312 311 309 306 300 297 288 266 252 246 243 244 241 236 232 229 227 230 229
328 329 327 325 325 324 323 324 326 328 329 329 330 327 324 324 325 323 322 321 317 312 310 309 309 308 305 302 299 295 288 267 250 246 245 246 241 237 233 231 227 230
321 322 321 319 318 317 318 320 322 323 324 323 325 324 324 322 322 321 319 317 314 310 307 307 303 303 304 303 302 299 296 288 269 256 250 245 241 237 235 234 232 228
316 316 315 316 316 316 317 320 321 320 319 320 319 320 318 317 315 316 316 315 312 310 309 308 304 300 303 310 315 313 311 311 306 289 264 252 246 243 235 232 232 232
309 311 314 315 315 314 317 317 318 318 318 318 317 315 316 314 314 312 312 312 312 312 310 307 304 302 302 303 301 300 304 304 301 299 295 276 259 250 243 236 232 231
308 308 311 314 311 313 313 315 317 318 316 315 314 314 313 313 313 313 311 311 311 310 310 307 303 303 302 298 297 296 296 298 298 298 293 291 284 265 256 247 237 233
303 303 306 306 309 311 313 315 314 314 314 314 314 314 312 311 311 309 309 310 308 307 305 305 301 298 299 299 297 296 294 293 294 294 294 290 285 281 271 256 246 239
302 303 301 302 304 307 311 314 314 312 312 312 312 311 311 312 309 309 308 307 308 307 304 302 301 302 303 301 300 298 295 294 289 288 289 288 285 281 278 272 259 245
301 301 300 300 300 304 309 309 311 310 309 307 307 308 310 308 308 307 306 305 305 304 301 300 298 303 303 301 300 297 294 293 289 288 285 283 281 280 278 277 271 260
298 299 300 300 301 304 305 304 305 307 306 307 306 307 307 307 307 308 305 302 301 300 300 299 297 298 301 300 299 297 297 298 291 288 283 280 278 276 277 275 274 271
294 295 298 300 302 302 302 303 303 300 303 305 304 302 297 297 298 298 300 301 300 300 299 296 296 296 298 299 301 302 299 294 288 285 284 280 278 276 272 272 272 271
292 293 295 297 298 299 301 302 301 300 299 302 300 300 299 300 298 296 297 298 300 299 297 294 293 297 299 299 299 298 296 287 282 281 280 279 275 274 271 268 264 262
293 294 293 291 293 296 297 297 298 296 293 296 293 296 297 297 297 297 295 293 293 295 294 294 294 294 296 297 295 294 292 287 282 280 280 279 280 276 273 266 261 254
293 292 291 290 288 290 294 296 295 292 291 289 286 287 288 294 295 295 293 290 288 288 291 290 290 292 293 292 293 293 293 288 282 277 279 280 282 283 275 267 264 254
292 291 289 287 289 292 293 290 288 288 288 288 286 285 287 287 288 288 290 291 289 286 286 286 288 289 291 290 290 292 291 288 282 277 277 280 281 281 284 277 266 261